Location: Cazarilh
(42.9578°N, 0.5819°E)
Time: 22:36:29
(UTC+00:00)

Cosmos 44 - Pass Details

Date: 11 December 2019
Orbit: 595 x 767 km, 65.1° (Epoch: 18 January)

Event Time Altitude Azimuth Distance (km) Brightness Sun altitude
Rises 05:08:46 0° 193° (SSW) 3,047 6.6 -22.9°
Reaches altitude 10° 05:11:15 10° 186° (S) 2,105 5.8 -22.4°
Maximum altitude 05:15:42 40° 117° (ESE) 957 4.5 -21.6°
Drops below altitude 10° 05:19:58 10° 48° (NE) 2,019 6.1 -20.9°
Sets 05:22:18 0° 41° (NE) 2,908 6.9 -20.4°
